Date String (YYYY-MM-DD hh:mm:ss) UTC,Instrument flags,absolute air pressure of the measurement (hPa),sample flow rate (lpm),inlet stack bypass flow (lpm),air temperature of the measurement (°C),ambient temperature measured by the external sensor (°C),aerosol sample conditioner tube jacket temperature (°C),OPC LED temperature (°C),internal box temperature (°C),relative humidity of the measurement (%),span deviation,mass concentration of particles derived from Lorenz-Mie calculation of OPC scattering (μg/m³),mass concentration of particles derived from Lorenz-Mie calculation of OPC scattering (μg/m³),mass concentration of particles derived from Lorenz-Mie calculation of OPC scattering (μg/m³)
DateTimeUTC,F1_M11,P_M11,Q1_M11,Q2_M11,T1_M11,T2_M11,T3_M11,T4_M11,T5_M11,U1_M11,ZSPAN_M11,X0_M11,X2_M11,X1_M11
2023-07-29 06:00:00,SystemResetWarning,0837.5,5.00,000.00,029.3,028.2,000.0,037.6,031.0,32.0,0000.0,0015.21,0005.15,0003.77
2023-07-29 06:01:00,SystemResetWarning,0837.5,5.00,000.00,029.3,028.3,000.0,037.7,031.0,31.8,0000.0,0014.81,0005.20,0003.80
2023-07-29 06:02:00,SystemResetWarning,0837.4,4.99,000.00,029.3,027.5,000.0,037.6,031.0,31.5,0000.0,0015.06,0005.26,0003.83
2023-07-29 06:03:00,SystemResetWarning,0837.4,4.99,000.00,029.3,025.9,000.0,037.5,030.7,31.6,0000.0,0015.53,0005.29,0003.87
2023-07-29 06:04:00,SystemResetWarning,0837.4,5.03,000.00,029.2,025.3,000.0,037.5,030.5,31.7,0000.0,0014.71,0005.31,0003.90
2023-07-29 06:05:00,SystemResetWarning,0837.3,5.00,000.00,029.1,025.4,000.0,037.5,030.3,31.9,0000.0,0014.89,0005.31,0003.93
2023-07-29 06:06:00,SystemResetWarning,0837.3,5.00,000.00,029.0,025.8,000.0,037.5,030.3,32.0,0000.0,0015.27,0005.29,0003.95
2023-07-29 06:07:00,SystemResetWarning,0837.3,5.00,000.00,029.0,026.2,000.0,037.5,030.4,32.0,0000.0,0015.35,0005.29,0003.96
2023-07-29 06:08:00,SystemResetWarning,0837.3,5.00,000.00,029.0,026.6,000.0,037.5,030.5,32.0,0000.0,0015.33,0005.31,0003.99
2023-07-29 06:09:00,SystemResetWarning,0837.3,5.00,000.00,029.0,026.9,000.0,037.5,030.6,32.0,0000.0,0014.81,0005.33,0004.01
2023-07-29 06:10:00,SystemResetWarning,0837.2,5.01,000.00,029.1,027.1,000.0,037.5,030.6,31.9,0000.0,0014.30,0005.37,0004.03
2023-07-29 06:11:00,SystemResetWarning,0837.3,4.98,000.00,029.1,027.4,000.0,037.5,030.7,31.9,0000.0,0014.58,0005.39,0004.04
2023-07-29 06:12:00,SystemResetWarning,0837.3,4.99,000.00,029.1,027.5,000.0,037.5,030.7,31.9,0000.0,0015.13,0005.38,0004.06
2023-07-29 06:13:00,SystemResetWarning,0837.3,5.01,000.00,029.1,027.7,000.0,037.6,030.8,32.0,0000.0,0015.67,0005.35,0004.05
2023-07-29 06:14:00,SystemResetWarning,0837.3,5.01,000.00,029.2,027.8,000.0,037.6,030.8,32.0,0000.0,0015.74,0005.42,0004.05
2023-07-29 06:15:00,SystemResetWarning,0837.3,5.00,000.00,029.2,027.9,000.0,037.6,030.8,32.0,0000.0,0016.21,0005.50,0004.06
2023-07-29 06:16:00,SystemResetWarning,0837.3,4.99,000.00,029.2,028.0,000.0,037.6,030.9,31.9,0000.0,0016.80,0005.57,0004.06
2023-07-29 06:17:00,SystemResetWarning,0837.3,5.00,000.00,029.3,028.1,000.0,037.6,030.9,31.8,0000.0,0016.46,0005.57,0004.04
2023-07-29 06:18:00,SystemResetWarning,0837.3,5.00,000.00,029.3,028.2,000.0,037.7,031.0,31.8,0000.0,0017.02,0005.54,0004.03
2023-07-29 06:19:00,SystemResetWarning,0837.2,5.00,000.00,029.3,028.2,000.0,037.7,031.0,31.8,0000.0,0017.42,0005.56,0004.03
2023-07-29 06:20:00,SystemResetWarning,0837.3,5.00,000.00,029.4,028.2,000.0,037.7,031.0,31.7,0000.0,0018.02,0005.54,0004.03
2023-07-29 06:21:00,SystemResetWarning,0837.2,4.98,000.00,029.4,026.9,000.0,037.6,030.9,31.6,0000.0,0018.33,0005.52,0004.02
2023-07-29 06:22:00,SystemResetWarning,0837.2,5.01,000.00,029.3,025.5,000.0,037.5,030.7,31.8,0000.0,0018.00,0005.48,0004.02
2023-07-29 06:23:00,SystemResetWarning,0837.2,5.01,000.00,029.2,025.3,000.0,037.5,030.4,31.9,0000.0,0018.08,0005.50,0004.02
2023-07-29 06:24:00,SystemResetWarning,0837.2,5.00,000.00,029.1,025.5,000.0,037.5,030.3,32.1,0000.0,0017.03,0005.49,0004.01
2023-07-29 06:25:00,SystemResetWarning,0837.2,4.99,000.00,029.1,025.9,000.0,037.5,030.4,32.1,0000.0,0016.75,0005.42,0004.01
2023-07-29 06:26:00,SystemResetWarning,0837.2,4.99,000.00,029.1,026.3,000.0,037.5,030.5,32.2,0000.0,0015.91,0005.35,0003.99
2023-07-29 06:27:00,SystemResetWarning,0837.2,5.01,000.00,029.1,026.7,000.0,037.6,030.6,32.1,0000.0,0015.23,0005.32,0003.99
2023-07-29 06:28:00,SystemResetWarning,0837.2,5.00,000.00,029.1,027.0,000.0,037.6,030.6,32.0,0000.0,0015.29,0005.31,0004.01
2023-07-29 06:29:00,SystemResetWarning,0837.2,5.00,000.00,029.1,027.3,000.0,037.6,030.7,32.1,0000.0,0014.66,0005.29,0004.01
2023-07-29 06:30:00,SystemResetWarning,0837.2,5.00,000.00,029.1,027.5,000.0,037.6,030.7,32.0,0000.0,0014.74,0005.22,0004.01
2023-07-29 06:31:00,SystemResetWarning,0837.2,4.99,000.00,029.1,027.6,000.0,037.6,030.8,31.9,0000.0,0014.08,0005.20,0004.02
2023-07-29 06:32:00,SystemResetWarning,0837.2,4.99,000.00,029.2,027.8,000.0,037.6,030.8,31.7,0000.0,0013.60,0005.21,0004.03
2023-07-29 06:33:00,SystemResetWarning,0837.2,4.99,000.00,029.2,027.9,000.0,037.6,030.9,31.9,0000.0,0013.76,0005.26,0004.04
2023-07-29 06:34:00,SystemResetWarning,0837.2,5.01,000.00,029.2,028.0,000.0,037.6,030.9,31.8,0000.0,0013.68,0005.29,0004.07
2023-07-29 06:35:00,SystemResetWarning,0837.2,5.01,000.00,029.3,028.1,000.0,037.7,031.0,31.6,0000.0,0014.09,0005.25,0004.08
2023-07-29 06:36:00,SystemResetWarning,0837.2,5.00,000.00,029.3,028.2,000.0,037.7,031.0,32.3,0000.0,0013.51,0005.23,0004.10
2023-07-29 06:37:00,SystemResetWarning,0837.2,5.00,000.00,029.3,028.3,000.0,037.7,031.0,32.4,0000.0,0013.81,0005.29,0004.12
2023-07-29 06:38:00,SystemResetWarning,0837.2,5.00,000.00,029.4,028.3,000.0,037.7,031.1,32.3,0000.0,0014.39,0005.28,0004.13
2023-07-29 06:39:00,SystemResetWarning,0837.4,4.99,000.00,029.4,028.1,000.0,037.7,031.1,32.1,0000.0,0014.11,0005.27,0004.13
2023-07-29 06:40:00,SystemResetWarning,0837.2,5.00,000.00,029.4,026.4,000.0,037.6,030.8,31.9,0000.0,0013.97,0005.29,0004.14
2023-07-29 06:41:00,SystemResetWarning,0837.2,5.00,000.00,029.3,025.4,000.0,037.5,030.6,32.1,0000.0,0013.51,0005.34,0004.16
2023-07-29 06:42:00,SystemResetWarning,0837.2,5.00,000.00,029.2,025.4,000.0,037.5,030.4,32.3,0000.0,0013.46,0005.39,0004.16
2023-07-29 06:43:00,SystemResetWarning,0837.2,5.01,000.00,029.1,025.7,000.0,037.6,030.4,32.4,0000.0,0013.52,0005.40,0004.17
2023-07-29 06:44:00,SystemResetWarning,0837.2,5.00,000.00,029.1,026.1,000.0,037.6,030.5,32.5,0000.0,0013.37,0005.36,0004.17
2023-07-29 06:45:00,SystemResetWarning,0837.2,5.00,000.00,029.1,026.5,000.0,037.6,030.6,32.4,0000.0,0012.67,0005.30,0004.15
2023-07-29 06:46:00,SystemResetWarning,0837.2,4.99,000.00,029.1,026.9,000.0,037.6,030.6,32.3,0000.0,0012.13,0005.28,0004.15
2023-07-29 06:47:00,SystemResetWarning,0837.2,5.01,000.00,029.1,027.1,000.0,037.6,030.7,32.1,0000.0,0012.17,0005.28,0004.13
2023-07-29 06:48:00,SystemResetWarning,0837.2,5.00,000.00,029.1,027.4,000.0,037.6,030.8,32.1,0000.0,0012.70,0005.23,0004.13
2023-07-29 06:49:00,SystemResetWarning,0837.2,5.00,000.00,029.2,027.6,000.0,037.6,030.8,32.0,0000.0,0012.56,0005.16,0004.12
2023-07-29 06:50:00,SystemResetWarning,0837.2,5.00,000.00,029.2,027.8,000.0,037.6,030.9,32.0,0000.0,0012.46,0005.16,0004.11
2023-07-29 06:51:00,SystemResetWarning,0837.1,5.00,000.00,029.2,027.9,000.0,037.6,030.9,32.0,0000.0,0013.07,0005.17,0004.12
2023-07-29 06:52:00,SystemResetWarning,0837.1,5.00,000.00,029.3,028.0,000.0,037.7,030.9,31.9,0000.0,0013.25,0005.17,0004.12
2023-07-29 06:53:00,SystemResetWarning,0837.1,4.99,000.00,029.3,028.1,000.0,037.7,031.0,31.9,0000.0,0014.25,0005.13,0004.12
2023-07-29 06:54:00,SystemResetWarning,0837.2,5.00,000.00,029.3,028.2,000.0,037.7,031.0,31.8,0000.0,0015.31,0005.12,0004.13
2023-07-29 06:55:00,SystemResetWarning,0837.2,4.99,000.00,029.4,028.3,000.0,037.7,031.1,31.7,0000.0,0015.63,0005.12,0004.13
2023-07-29 06:56:00,SystemResetWarning,0837.2,5.00,000.00,029.4,027.4,000.0,037.7,031.0,31.7,0000.0,0015.71,0005.15,0004.14
2023-07-29 06:57:00,SystemResetWarning,0837.1,5.00,000.00,029.3,025.9,000.0,037.6,030.8,31.7,0000.0,0016.05,0005.20,0004.15
2023-07-29 06:58:00,SystemResetWarning,0837.1,5.01,000.00,029.3,025.4,000.0,037.5,030.5,31.8,0000.0,0016.81,0005.27,0004.17
2023-07-29 06:59:00,SystemResetWarning,0837.0,5.01,000.00,029.1,025.6,000.0,037.6,030.4,32.0,0000.0,0016.72,0005.26,0004.17
